This is the latest recevied weather packets stored in our database for station/object WX4FLY-3. If no packets are shown the sender has not sent any weather packets the latest 1 day(s).
| Time | Temp. | Humidity | Pressure | Rain* | Wind** | Luminosity | Snow |
|---|---|---|---|---|---|---|---|
| 1778024316 | 20° C | 82% | 1018.7 hPa | 0 mm | 5.81 m/s, 178° | - | - |
| 1778023711 | 20° C | 81% | 1018.8 hPa | 0 mm | 5.36 m/s, 178° | - | - |
| 1778023111 | 20° C | 80% | 1018.7 hPa | 0 mm | 5.81 m/s, 176° | - | - |
| 1778022510 | 20° C | 80% | 1018.5 hPa | 0 mm | 5.36 m/s, 197° | - | - |
| 1778021910 | 20.56° C | 80% | 1018.5 hPa | 0 mm | 5.81 m/s, 196° | - | - |
| 1778021309 | 20.56° C | 80% | 1018.7 hPa | 0 mm | 5.36 m/s, 183° | - | - |
| 1778020708 | 20.56° C | 81% | 1018.8 hPa | 0 mm | 4.92 m/s, 188° | - | - |
| 1778020108 | 20.56° C | 79% | 1018.7 hPa | 0 mm | 4.92 m/s, 199° | - | - |
| 1778019507 | 21.11° C | 80% | 1018.5 hPa | 0 mm | 4.47 m/s, 207° | - | - |
| 1778018907 | 21.11° C | 80% | 1018.4 hPa | 0 mm | 4.02 m/s, 180° | - | - |
| 1778018306 | 21.11° C | 79% | 1018.4 hPa | 0 mm | 4.02 m/s, 191° | - | - |
| 1778017706 | 21.11° C | 79% | 1018.5 hPa | 0 mm | 3.58 m/s, 194° | - | - |
| 1778017105 | 21.11° C | 79% | 1018.4 hPa | 0 mm | 4.02 m/s, 171° | - | - |
| 1778016504 | 21.11° C | 78% | 1018.6 hPa | 0 mm | 4.02 m/s, 202° | - | - |
| 1778015904 | 21.11° C | 78% | 1018.6 hPa | 0 mm | 4.02 m/s, 204° | - | - |
| 1778015303 | 21.11° C | 77% | 1018.8 hPa | 0 mm | 4.02 m/s, 221° | - | - |
| 1778014703 | 21.67° C | 76% | 1018.6 hPa | 0 mm | 4.02 m/s, 184° | - | - |
| 1778014102 | 21.67° C | 75% | 1018.5 hPa | 0 mm | 3.58 m/s, 196° | - | - |
| 1778013502 | 21.67° C | 75% | 1018.8 hPa | 0 mm | 4.02 m/s, 210° | - | - |
| 1778012901 | 21.67° C | 74% | 1018.8 hPa | 0 mm | 4.47 m/s, 213° | - | - |
| 1778012300 | 22.22° C | 74% | 1019 hPa | 0 mm | 4.02 m/s, 202° | - | - |
| 1778011700 | 21.67° C | 73% | 1019.3 hPa | 0 mm | 4.47 m/s, 214° | - | - |
| 1778011099 | 21.67° C | 72% | 1019.3 hPa | 0 mm | 4.47 m/s, 219° | - | - |
| 1778010499 | 22.22° C | 73% | 1019.5 hPa | 0 mm | 4.47 m/s, 206° | - | - |
| 1778009898 | 21.67° C | 72% | 1019.5 hPa | 0 mm | 4.47 m/s, 214° | - | - |
* Rain latest hour (hover to see other rain measurements)
** Current wind speed in m/s (hover to see current wind gust speed)